FENGYUN 3C
Last updated on Mon Jun 22 2026 00:02:46 GMT+0000 (Coordinated Universal Time)
1 39260U 13052A 26172.49624285 .00000036 00000+0 39296-4 0 9990
2 39260 98.4988 146.1733 0015000 15.7162 344.4476 14.15755814659172
Next 0 passes for location: London (51.5072 / 0.1276)
No passes found over London.